This is the latest recevied weather packets stored in our database for station/object KD9WYV. If no packets are shown the sender has not sent any weather packets the latest 1 day(s).
| Time | Temp. | Humidity | Pressure | Rain* | Wind** | Luminosity | Snow |
|---|---|---|---|---|---|---|---|
| 1778019963 | 8.33° C | 96% | 1009.6 hPa | 3.05 mm | 1.79 m/s, 0° | 38 W/m² | - |
| 1778019660 | 8.33° C | 96% | 1009.8 hPa | 3.05 mm | 0 m/s | 24 W/m² | - |
| 1778019357 | 8.33° C | 96% | 1010 hPa | 4.83 mm | 0.89 m/s, 0° | 25 W/m² | - |
| 1778019053 | 8.33° C | 96% | 1009.8 hPa | 3.05 mm | 3.58 m/s, 354° | 35 W/m² | - |
| 1778018751 | 8.33° C | 96% | 1009.5 hPa | 1.78 mm | 2.68 m/s, 334° | 49 W/m² | - |
| 1778018448 | 8.33° C | 96% | 1009.6 hPa | 1.78 mm | 2.24 m/s, 25° | 39 W/m² | - |
| 1778018146 | 8.33° C | 96% | 1009.6 hPa | 0 mm | 2.68 m/s, 44° | 41 W/m² | - |
| 1778017844 | 8.33° C | 95% | 1009.6 hPa | 1.27 mm | 0.45 m/s, 348° | 36 W/m² | - |
| 1778017542 | 8.89° C | 95% | 1009.7 hPa | 1.27 mm | 1.79 m/s, 43° | 35 W/m² | - |
| 1778017238 | 8.89° C | 96% | 1009.6 hPa | 0 mm | 1.34 m/s, 355° | 23 W/m² | - |
| 1778016936 | 8.89° C | 96% | 1009.4 hPa | 0 mm | 1.79 m/s, 333° | 23 W/m² | - |
| 1778016632 | 9.44° C | 96% | 1009.3 hPa | 0 mm | 4.47 m/s, 346° | 43 W/m² | - |
| 1778016328 | 9.44° C | 96% | 1009.3 hPa | 0 mm | 4.02 m/s, 329° | 28 W/m² | - |
| 1778016026 | 9.44° C | 96% | 1009.4 hPa | 0 mm | 4.47 m/s, 8° | 35 W/m² | - |
| 1778015723 | 10° C | 96% | 1009.1 hPa | 0 mm | 6.26 m/s, 340° | 41 W/m² | - |
| 1778015420 | 10° C | 96% | 1009.1 hPa | 0 mm | 1.79 m/s, 306° | 21 W/m² | - |
| 1778015116 | 10° C | 96% | 1009.1 hPa | 0 mm | 1.79 m/s, 311° | 39 W/m² | - |
| 1778014814 | 10° C | 96% | 1009.1 hPa | 0 mm | 1.79 m/s, 0° | 28 W/m² | - |
| 1778014512 | 10° C | 96% | 1009 hPa | 0 mm | 3.13 m/s, 27° | 36 W/m² | - |
| 1778014208 | 10° C | 96% | 1009 hPa | 1.78 mm | 3.58 m/s, 8° | 50 W/m² | - |
| 1778013906 | 10° C | 96% | 1009 hPa | 1.78 mm | 4.47 m/s, 10° | 51 W/m² | - |
| 1778013603 | 10.56° C | 95% | 1009.1 hPa | 0 mm | 0.89 m/s, 329° | 54 W/m² | - |
| 1778013299 | 10.56° C | 96% | 1009 hPa | 0 mm | 2.68 m/s, 359° | 39 W/m² | - |
| 1778012996 | 10.56° C | 96% | 1008.8 hPa | 0 mm | 1.79 m/s, 342° | 40 W/m² | - |
| 1778012693 | 10.56° C | 96% | 1008.5 hPa | 0 mm | 2.68 m/s, 353° | 42 W/m² | - |
* Rain latest hour (hover to see other rain measurements)
** Current wind speed in m/s (hover to see current wind gust speed)